Temp
18 18 18 18 14 11 13 15 16 19 22 23 24 23 22 22 21 19 22 21 21 21 21 21 20 19 18 18 19 19 18 18 18 18 18 17 17 16 16 16 15 16 16 16 15 15 15 15 14
19 18 18 17 12 13 13 15 18 18 22 24 24 22 22 21 21 22 21 21 20 22 21 21 21 20 18 18 18 18 18 18 18 17 17 16 16 16 16 15 15 15 15 14 14 14 14 14 14
18 18 17 12 9 12 15 17 21 21 23 22 23 23 23 22 22 23 23 22 21 21 21 21 21 21 20 18 18 18 18 18 18 17 17 17 16 15 16 15 15 14 14 13 14 14 13 13 14
17 17 16 13 13 13 16 19 19 19 24 24 23 21 22 23 23 22 22 22 21 20 21 21 21 21 20 19 17 17 17 17 17 17 17 17 16 15 14 15 14 14 14 13 14 13 13 13 13
17 17 12 12 12 14 16 18 20 19 21 24 23 21 21 23 22 22 22 22 21 21 21 21 20 20 20 19 17 17 17 17 17 17 17 16 16 15 15 15 14 13 14 13 14 13 13 13 12
16 15 11 12 14 16 17 20 20 20 21 23 22 20 21 21 22 22 22 22 22 22 21 21 20 19 19 18 17 16 15 15 16 16 16 16 15 14 14 15 15 13 13 15 13 13 13 12 12
13 10 12 13 13 15 18 21 20 19 21 22 23 18 20 21 21 21 21 22 22 21 21 21 20 19 18 18 17 15 15 15 15 14 14 14 15 14 14 13 14 14 14 13 13 13 12 12 12
16 11 14 12 15 16 19 21 22 22 21 23 24 18 19 22 20 20 20 21 21 21 20 20 19 19 19 18 16 14 14 14 14 13 13 13 13 13 13 12 12 13 13 12 12 12 12 11 11
16 11 11 13 15 16 19 18 21 21 22 23 23 24 24 23 20 19 19 19 20 20 20 20 19 18 18 18 17 14 14 14 13 13 13 12 13 13 13 12 12 12 14 12 12 12 11 10 11
13 10 12 14 15 17 17 17 18 20 20 22 23 23 23 23 21 20 20 21 21 20 21 20 19 18 18 17 17 14 13 13 13 13 13 13 12 13 13 12 12 13 12 12 13 11 10 10 10
13 14 14 15 18 18 16 16 18 19 17 21 22 24 22 22 20 20 20 21 22 21 20 20 19 18 18 17 17 15 12 12 12 13 12 12 12 12 12 12 11 11 11 12 12 11 10 10 10
13 14 17 17 18 17 16 18 17 18 20 21 21 23 22 22 21 21 20 20 21 20 20 20 18 18 17 17 16 15 12 11 12 12 12 12 12 12 11 11 10 10 11 11 11 10 11 11 11
13 15 16 17 17 18 18 17 17 18 21 22 21 21 22 22 22 22 22 21 21 20 20 19 18 17 17 16 16 14 13 12 12 12 12 11 11 11 11 11 10 10 11 11 11 10 11 11 11
16 16 16 17 17 17 17 17 18 19 21 21 22 21 22 22 22 22 21 21 21 20 20 18 17 16 16 16 16 14 13 12 12 12 12 12 11 11 11 11 10 10 11 11 11 10 10 11 10
16 15 15 15 16 16 18 15 15 20 21 21 22 22 22 21 21 21 22 22 21 20 20 18 17 16 16 15 15 14 13 12 12 12 12 12 11 11 11 11 10 10 11 11 11 10 10 10 10
15 15 13 15 15 17 17 17 17 21 21 20 21 21 21 21 21 21 22 22 21 20 20 19 17 16 15 15 15 14 12 12 12 12 12 12 11 11 11 10 10 10 10 11 10 10 10 10 10
12 11 13 15 17 17 15 15 17 19 19 18 19 20 20 20 21 22 21 22 22 21 20 19 17 16 15 14 14 13 11 11 12 12 11 11 11 11 10 10 10 10 10 11 11 10 10 10 10
12 12 12 13 15 16 14 15 15 18 17 17 18 19 20 20 22 22 21 21 22 21 20 19 17 16 15 14 14 13 10 10 11 11 11 11 11 11 10 10 9 10 9 10 11 10 10 10 10
13 12 12 13 15 14 13 13 14 15 16 15 17 18 19 20 21 22 22 20 21 21 19 18 17 15 14 13 13 13 10 10 10 10 11 11 11 10 10 10 10 9 9 11 11 10 10 10 10
11 11 11 12 13 13 13 14 15 14 14 16 17 18 18 19 19 20 21 19 22 22 19 17 16 15 15 13 13 13 11 9 10 10 11 11 10 11 10 10 10 10 10 11 12 10 10 10 10
11 11 11 12 13 13 12 13 13 15 15 17 17 17 18 18 18 20 20 18 21 20 19 17 16 15 14 13 12 12 9 9 10 10 10 10 10 10 10 10 10 10 10 10 11 10 10 10 10
10 12 13 12 11 10 13 12 14 15 15 15 16 17 18 17 18 20 19 17 20 20 18 17 16 15 14 13 12 12 11 10 10 9 10 10 10 10 11 10 10 10 10 11 11 10 10 10 10
11 12 12 12 11 11 12 10 12 14 14 15 16 16 17 18 18 20 19 20 19 19 18 17 15 14 14 13 12 11 10 9 9 9 9 10 10 10 10 10 10 9 8 9 11 10 10 10 10
14 12 12 11 10 9 11 10 13 13 14 14 15 16 16 17 17 20 20 17 17 14 16 16 15 14 13 13 11 10 10 9 9 8 8 9 9 9 9 10 10 9 7 8 10 10 10 10 10
13 12 10 9 9 10 12 11 14 14 15 14 14 14 15 15 16 19 17 17 16 16 14 15 15 14 13 13 11 9 9 9 9 9 8 8 9 9 9 9 9 8 7 8 9 9 9 9 10
10 10 9 11 10 12 11 11 12 15 14 14 13 13 14 14 14 18 19 18 16 15 15 15 15 14 13 13 11 8 8 8 9 8 8 8 8 9 9 9 9 8 7 8 8 8 8 8 8
11 11 12 11 11 10 10 12 13 14 11 11 12 12 12 13 14 16 19 18 16 16 16 16 15 14 13 12 11 9 9 9 9 8 8 8 8 8 8 8 8 7 7 7 7 8 7 8 8
12 13 11 10 10 11 11 12 11 11 11 11 11 10 11 13 13 16 14 15 15 16 15 15 15 15 14 12 11 10 10 10 10 9 8 8 8 8 8 8 8 7 8 8 8 8 7 8 8
11 11 12 11 9 11 10 10 10 11 11 11 10 9 11 12 13 14 12 11 11 13 15 15 15 14 13 12 11 10 10 10 10 10 9 9 9 9 8 8 8 9 9 8 7 8 8 8 9
12 12 11 9 10 9 9 11 13 13 12 11 10 9 10 12 13 14 14 12 11 11 14 15 15 13 13 12 11 10 10 10 10 10 9 9 9 9 8 8 8 8 8 8 8 8 7 8 9
Height
1491 1492 1494 1497 1508 1512 1513 1499 1481 1477 1471 1466 1466 1467 1468 1468 1471 1485 1473 1476 1477 1479 1481 1482 1483 1486 1489 1491 1493 1494 1495 1496 1497 1498 1498 1501 1503 1505 1509 1511 1513 1515 1516 1518 1520 1523 1524 1525 1528
1490 1491 1495 1495 1513 1519 1509 1487 1481 1474 1467 1466 1466 1468 1468 1469 1469 1470 1472 1473 1477 1479 1480 1481 1483 1485 1488 1490 1492 1494 1495 1496 1497 1498 1499 1501 1503 1504 1507 1511 1513 1514 1516 1518 1521 1523 1525 1526 1528
1490 1491 1494 1498 1513 1514 1503 1480 1473 1468 1468 1468 1466 1466 1466 1467 1468 1470 1471 1472 1475 1478 1479 1480 1482 1484 1486 1488 1491 1492 1493 1495 1496 1497 1498 1500 1501 1506 1504 1509 1512 1514 1516 1518 1522 1524 1524 1527 1529
1490 1493 1495 1501 1502 1492 1483 1473 1470 1469 1466 1466 1464 1466 1466 1465 1465 1467 1470 1472 1475 1477 1478 1480 1481 1482 1484 1486 1488 1490 1492 1493 1495 1496 1497 1498 1500 1501 1504 1506 1511 1514 1516 1520 1522 1525 1526 1527 1530
1490 1491 1501 1502 1493 1482 1476 1471 1472 1470 1468 1464 1465 1465 1465 1465 1466 1467 1467 1470 1473 1475 1477 1479 1480 1481 1481 1483 1485 1488 1489 1491 1493 1494 1497 1498 1499 1500 1503 1504 1509 1516 1514 1519 1524 1526 1529 1529 1530
1489 1491 1505 1505 1487 1475 1472 1470 1469 1465 1462 1462 1464 1463 1464 1464 1465 1465 1467 1468 1471 1473 1476 1477 1478 1479 1480 1481 1482 1485 1486 1488 1490 1492 1496 1497 1498 1501 1503 1505 1504 1512 1513 1513 1524 1525 1529 1529 1530
1485 1494 1499 1493 1488 1477 1470 1467 1466 1458 1457 1458 1458 1463 1463 1461 1463 1466 1466 1467 1469 1471 1473 1474 1475 1476 1478 1478 1480 1482 1484 1485 1487 1490 1494 1496 1498 1500 1503 1505 1506 1509 1513 1512 1523 1525 1528 1529 1530
1482 1486 1491 1490 1485 1475 1465 1464 1460 1459 1459 1457 1457 1461 1459 1457 1460 1465 1466 1465 1466 1467 1470 1472 1473 1473 1475 1475 1477 1480 1482 1483 1485 1488 1492 1495 1497 1499 1502 1504 1505 1505 1507 1515 1520 1524 1527 1528 1531
1479 1490 1491 1483 1480 1469 1464 1463 1459 1461 1461 1459 1457 1454 1455 1455 1458 1461 1462 1463 1464 1465 1466 1468 1470 1471 1471 1472 1474 1477 1479 1481 1484 1486 1488 1491 1494 1496 1498 1497 1502 1502 1501 1514 1520 1523 1525 1527 1532
1474 1483 1478 1466 1465 1462 1464 1465 1461 1463 1459 1456 1456 1454 1454 1453 1454 1455 1456 1457 1460 1461 1462 1464 1467 1468 1468 1469 1471 1473 1475 1478 1480 1483 1486 1488 1489 1491 1492 1493 1496 1498 1500 1505 1515 1522 1524 1526 1531
1465 1462 1461 1460 1460 1461 1459 1460 1462 1461 1461 1456 1456 1453 1453 1453 1452 1453 1453 1455 1456 1459 1460 1460 1463 1464 1464 1465 1467 1469 1472 1474 1477 1480 1481 1483 1485 1487 1488 1487 1491 1496 1499 1504 1512 1518 1521 1525 1530
1462 1456 1457 1454 1458 1459 1456 1454 1454 1458 1454 1452 1453 1452 1450 1450 1450 1451 1451 1453 1454 1455 1457 1457 1460 1460 1462 1462 1463 1466 1468 1470 1473 1475 1478 1479 1481 1484 1485 1485 1486 1488 1496 1505 1510 1515 1519 1524 1530
1457 1454 1454 1454 1454 1454 1453 1449 1451 1446 1446 1446 1445 1447 1445 1446 1445 1446 1447 1450 1452 1452 1453 1453 1456 1457 1458 1459 1460 1461 1464 1467 1469 1471 1474 1476 1478 1480 1482 1484 1485 1487 1495 1504 1509 1514 1518 1524 1529
1448 1449 1449 1450 1450 1449 1449 1444 1445 1440 1441 1440 1440 1440 1440 1439 1440 1441 1442 1444 1445 1448 1449 1450 1452 1454 1455 1456 1456 1458 1460 1463 1465 1467 1470 1473 1475 1476 1480 1480 1483 1489 1494 1501 1508 1513 1517 1525 1528
1446 1448 1445 1444 1445 1443 1445 1439 1437 1436 1436 1434 1434 1435 1435 1435 1435 1435 1436 1436 1439 1441 1444 1445 1447 1449 1451 1453 1453 1454 1457 1460 1462 1465 1468 1470 1472 1474 1476 1479 1481 1481 1489 1501 1507 1513 1518 1525 1528
1446 1445 1450 1438 1437 1438 1443 1425 1429 1432 1431 1429 1429 1428 1428 1428 1429 1430 1430 1431 1433 1436 1438 1440 1442 1445 1448 1449 1450 1451 1453 1456 1459 1462 1465 1467 1469 1471 1473 1474 1477 1479 1488 1498 1505 1511 1517 1523 1527
1447 1453 1448 1442 1434 1435 1437 1430 1427 1427 1428 1427 1426 1425 1424 1422 1420 1418 1419 1422 1425 1428 1432 1435 1438 1441 1444 1446 1446 1447 1450 1453 1457 1459 1461 1464 1466 1469 1470 1469 1469 1481 1487 1497 1504 1510 1515 1520 1526
1451 1449 1447 1444 1436 1432 1434 1427 1427 1425 1425 1423 1422 1420 1419 1417 1414 1410 1410 1413 1416 1421 1426 1431 1434 1438 1440 1442 1443 1444 1446 1449 1452 1455 1458 1461 1463 1467 1469 1470 1475 1481 1489 1497 1502 1508 1514 1520 1525
1442 1443 1444 1440 1435 1437 1432 1426 1424 1422 1419 1418 1418 1417 1413 1410 1408 1405 1404 1406 1410 1414 1420 1424 1429 1432 1435 1436 1437 1439 1440 1444 1447 1451 1453 1457 1460 1463 1468 1470 1475 1481 1486 1495 1500 1507 1512 1519 1523
1442 1442 1443 1440 1436 1436 1430 1417 1419 1419 1416 1414 1412 1410 1408 1407 1406 1403 1400 1402 1403 1407 1413 1419 1423 1427 1429 1432 1434 1435 1436 1439 1443 1447 1450 1453 1457 1458 1463 1468 1472 1480 1486 1493 1498 1504 1509 1516 1521
1440 1441 1441 1440 1435 1432 1431 1414 1417 1412 1410 1408 1406 1405 1402 1400 1400 1399 1396 1399 1399 1402 1406 1412 1418 1422 1425 1428 1430 1431 1433 1436 1439 1443 1446 1449 1453 1453 1458 1465 1470 1475 1482 1487 1495 1501 1506 1511 1519
1440 1433 1434 1437 1441 1448 1428 1423 1413 1411 1408 1405 1400 1397 1396 1394 1394 1393 1392 1395 1393 1396 1402 1409 1414 1418 1421 1424 1426 1427 1427 1429 1433 1438 1442 1446 1449 1452 1458 1461 1465 1472 1478 1484 1491 1499 1506 1510 1514
1431 1427 1431 1431 1436 1437 1434 1445 1412 1404 1409 1404 1395 1393 1391 1387 1386 1384 1385 1385 1390 1391 1396 1403 1410 1414 1417 1420 1422 1424 1425 1427 1432 1436 1439 1442 1446 1449 1449 1457 1460 1465 1473 1485 1486 1496 1503 1509 1512
1422 1425 1426 1429 1437 1447 1431 1438 1398 1407 1403 1397 1393 1391 1386 1381 1382 1379 1379 1382 1386 1392 1394 1400 1405 1409 1413 1417 1419 1421 1423 1425 1429 1433 1436 1438 1442 1446 1449 1451 1453 1461 1467 1480 1487 1493 1502 1508 1513
1421 1428 1442 1444 1444 1433 1419 1427 1400 1397 1393 1393 1392 1387 1379 1374 1372 1373 1374 1373 1377 1382 1392 1396 1400 1403 1409 1413 1416 1418 1421 1424 1427 1431 1434 1436 1438 1441 1445 1449 1451 1455 1462 1477 1487 1489 1498 1507 1511
1420 1427 1439 1434 1438 1423 1419 1418 1403 1391 1393 1393 1389 1382 1380 1375 1367 1363 1362 1364 1368 1375 1384 1391 1395 1399 1405 1409 1412 1416 1419 1422 1425 1430 1433 1435 1437 1440 1443 1446 1449 1453 1461 1472 1481 1488 1498 1503 1509
1412 1419 1416 1425 1423 1429 1419 1404 1393 1390 1393 1389 1386 1380 1380 1374 1364 1357 1353 1354 1360 1367 1377 1384 1390 1396 1401 1405 1409 1413 1416 1418 1422 1427 1432 1435 1438 1439 1442 1447 1450 1455 1462 1471 1479 1486 1492 1501 1508
1402 1403 1421 1424 1425 1423 1414 1408 1406 1398 1396 1392 1385 1384 1381 1371 1359 1350 1350 1349 1354 1363 1374 1382 1388 1392 1398 1402 1406 1410 1413 1416 1420 1424 1429 1434 1438 1441 1443 1447 1453 1459 1466 1473 1480 1487 1493 1499 1503
1404 1407 1407 1408 1417 1412 1416 1413 1398 1397 1393 1393 1389 1396 1387 1370 1364 1359 1355 1354 1361 1363 1369 1378 1384 1389 1394 1398 1403 1407 1410 1414 1418 1423 1427 1433 1438 1442 1446 1450 1453 1456 1460 1467 1475 1482 1488 1494 1499
1394 1397 1403 1412 1412 1415 1416 1404 1389 1388 1387 1385 1391 1391 1381 1375 1369 1364 1353 1353 1359 1365 1367 1374 1380 1386 1391 1395 1399 1404 1409 1412 1416 1421 1426 1431 1436 1440 1444 1449 1453 1456 1460 1465 1471 1477 1483 1488 1492
Wind_Speed
7 9 6 2 3 4 4 7 3 6 4 4 6 4 6 4 4 4 19 15 12 9 9 9 9 12 16 17 18 18 18 17 17 16 16 17 18 18 19 20 18 17 18 20 20 21 22 22 20
9 10 5 3 4 1 5 5 6 6 6 7 8 12 2 0 6 13 20 20 15 11 11 10 8 7 13 17 17 17 17 17 18 18 17 19 20 20 19 18 17 17 17 16 20 21 21 22 19
12 10 3 4 4 6 5 5 2 10 10 3 4 2 8 4 10 17 14 21 19 15 13 11 9 7 9 14 18 19 18 19 19 20 19 20 22 20 21 19 17 16 15 17 18 20 24 22 18
9 4 2 3 9 6 6 4 5 9 17 11 5 4 5 11 10 19 20 20 19 14 11 9 8 8 10 13 18 20 20 21 22 23 23 23 24 25 21 20 16 16 15 15 20 21 23 22 21
11 3 1 3 7 5 5 11 13 8 6 13 9 5 3 11 15 17 21 18 15 12 10 10 10 10 10 13 16 19 22 23 24 24 23 25 24 24 24 22 14 15 16 17 21 24 23 23 25
4 2 2 6 7 5 4 12 13 15 23 18 6 10 6 13 14 19 18 14 12 10 11 11 11 12 13 14 17 19 21 22 24 25 28 26 25 23 23 19 20 23 19 16 23 23 27 26 26
7 4 5 4 6 8 4 6 4 9 8 8 9 7 5 18 20 23 18 15 14 14 14 13 13 14 15 16 17 19 22 23 23 24 23 26 27 27 21 16 20 25 23 22 26 27 28 27 27
7 4 3 5 4 11 5 8 7 11 7 2 10 5 6 20 25 25 21 18 18 17 16 14 14 15 15 16 19 21 23 24 23 23 22 24 31 25 23 24 25 25 27 27 25 30 30 29 26
8 2 5 7 7 5 10 8 7 16 11 8 9 7 7 16 28 27 25 23 22 20 17 15 15 15 15 17 20 23 24 24 25 23 24 28 31 27 26 31 25 35 33 27 30 34 33 31 26
6 5 11 7 7 10 6 9 22 12 18 16 18 9 9 18 31 32 31 29 26 23 17 15 14 14 14 15 19 22 23 26 25 24 26 27 25 24 23 29 31 36 37 36 35 35 38 33 27
8 9 6 8 15 15 7 9 13 7 9 23 17 23 12 22 33 34 34 30 27 22 19 16 15 14 12 11 15 19 22 24 27 28 26 25 24 20 19 24 33 40 38 30 38 42 41 37 30
4 8 19 13 21 13 13 13 7 12 25 34 34 26 14 20 27 33 36 31 28 25 22 19 19 15 13 12 13 15 20 23 26 26 25 26 26 21 23 20 36 40 36 39 44 43 40 34 30
6 3 13 21 22 23 28 19 14 25 37 33 33 27 22 21 24 29 32 33 31 29 27 24 23 17 15 14 14 17 15 19 21 25 26 26 26 22 22 25 27 43 37 42 43 43 37 32 28
6 14 21 21 26 21 15 17 12 21 25 27 26 23 23 22 25 27 35 37 37 33 30 27 26 20 18 16 15 18 16 19 20 21 23 24 25 25 21 22 34 39 40 43 45 43 34 30 30
13 7 7 7 8 9 15 14 11 26 27 25 26 26 25 24 26 31 31 36 39 37 32 31 28 23 19 17 16 19 19 20 21 22 23 23 26 28 25 23 30 52 42 43 46 43 35 32 25
4 2 2 5 8 8 11 24 8 18 24 26 27 27 28 26 27 31 36 37 40 39 36 34 30 25 21 19 18 20 20 20 24 25 24 26 26 28 24 25 36 49 42 43 48 46 39 33 26
3 4 5 3 4 4 8 11 4 9 20 13 18 25 31 33 36 36 33 38 39 41 41 38 34 28 23 20 21 22 21 23 22 28 27 28 27 25 23 30 45 44 37 43 47 48 41 33 30
7 4 4 5 4 5 9 16 7 16 14 18 24 30 33 33 35 32 32 34 41 43 42 39 36 30 24 19 21 24 26 27 28 28 28 28 28 27 28 23 34 34 36 42 48 50 41 33 32
4 4 4 0 4 6 8 14 10 10 18 14 21 28 32 34 34 33 28 29 41 42 42 42 37 31 25 23 23 25 27 28 28 29 30 27 34 30 30 33 38 41 38 43 46 49 42 35 32
6 6 5 4 8 7 14 25 15 7 8 19 19 25 31 35 31 28 26 34 38 39 42 42 37 31 25 23 21 22 23 24 27 28 28 25 35 39 31 38 42 39 42 45 48 50 42 37 33
6 9 3 10 2 6 7 22 9 5 8 19 20 24 34 32 28 25 25 39 41 42 44 41 37 31 25 22 19 20 22 23 26 28 27 26 32 38 35 39 42 43 46 49 49 52 47 41 36
12 6 13 7 3 4 4 13 12 4 11 7 20 28 37 33 29 24 30 42 45 45 44 40 35 30 24 21 21 19 22 24 27 28 31 31 26 34 32 40 46 47 51 48 49 51 48 43 39
5 7 9 9 5 1 4 3 4 4 4 12 13 23 30 36 28 20 32 41 50 49 47 41 35 30 25 21 21 20 22 20 20 23 24 25 32 28 36 38 48 53 52 48 51 54 47 41 41
2 4 4 1 3 5 6 7 16 5 5 6 7 21 34 33 26 20 28 37 49 46 46 40 36 30 26 21 21 21 19 19 18 20 23 23 26 28 31 41 51 53 53 55 50 49 45 40 40
3 1 3 2 2 7 10 7 14 9 14 8 7 18 33 31 28 23 30 35 47 51 46 42 36 32 26 21 22 21 20 17 18 19 20 21 21 26 34 35 46 53 55 55 51 46 38 37 38
8 8 5 6 4 8 7 7 5 1 6 14 21 27 34 37 33 30 31 37 44 52 49 44 38 33 27 23 23 23 20 19 19 20 21 19 19 27 32 40 41 51 54 54 45 42 40 42 33
5 9 8 8 2 2 4 6 5 2 11 15 23 36 40 42 39 25 34 37 43 48 52 46 39 33 27 24 24 24 23 22 21 21 22 21 22 24 27 35 42 47 51 48 48 44 41 33 35
14 6 3 2 7 13 3 3 5 7 10 13 17 29 44 43 42 13 32 38 42 46 50 46 38 31 27 25 24 24 23 23 22 23 26 25 23 26 29 30 35 40 37 38 40 43 41 38 39
4 4 5 5 5 8 9 5 6 4 1 7 12 30 36 37 34 11 20 27 33 45 51 45 39 32 28 27 26 25 25 24 24 26 26 27 26 27 29 32 38 45 48 47 47 47 46 45 38
2 2 5 4 5 2 3 6 7 2 6 4 5 22 36 35 29 19 18 22 30 41 48 45 39 34 29 27 28 27 24 25 26 29 30 26 24 25 27 32 34 34 41 44 46 49 49 47 46
Wind_Direction
199 167 174 216 54 68 267 262 263 276 317 216 148 152 182 153 159 208 146 157 154 158 137 132 151 173 184 190 193 191 187 187 183 179 171 168 172 175 180 177 182 187 185 178 175 172 176 167 161
165 157 166 138 102 89 266 259 254 251 238 163 145 127 143 228 140 150 160 164 171 163 147 133 134 161 188 195 197 199 199 196 190 181 177 175 178 180 183 188 192 191 193 177 174 177 171 168 169
159 161 172 126 145 192 219 223 89 335 308 233 196 150 156 191 184 173 168 163 171 174 152 139 140 149 173 198 205 206 205 204 201 195 190 188 182 186 182 188 191 190 192 177 179 182 172 173 174
159 172 78 122 232 244 217 233 331 326 318 272 245 126 195 176 192 172 165 169 176 173 153 159 162 173 182 192 201 208 214 214 209 205 204 199 190 186 182 180 189 189 191 192 182 182 176 176 175
167 157 100 256 255 250 236 265 293 280 266 252 220 175 217 198 178 177 172 176 176 170 178 187 189 194 207 203 204 209 214 217 216 212 207 201 198 194 187 182 169 189 183 183 184 183 181 178 177
152 127 95 240 252 263 261 250 262 257 252 249 178 141 184 196 193 183 184 177 177 193 200 205 210 210 210 214 209 210 218 218 219 216 211 207 199 195 191 201 252 206 180 184 193 186 181 184 180
143 107 222 249 276 288 196 257 221 274 195 210 166 144 232 200 201 194 191 184 191 200 209 214 223 228 221 221 216 209 218 224 226 230 226 213 212 201 203 219 207 198 195 181 196 184 187 193 184
180 116 213 238 223 275 232 316 358 23 308 289 189 188 228 201 194 193 196 196 201 207 216 226 230 237 240 229 220 208 219 222 225 224 219 213 204 208 240 220 213 203 184 193 196 183 185 188 180
180 127 204 226 188 231 323 6 296 325 306 281 220 217 234 202 194 196 197 201 208 212 218 230 235 240 242 241 227 212 217 224 226 226 223 207 219 242 228 223 215 206 187 195 196 181 184 182 178
169 188 208 199 206 259 306 309 300 321 314 302 302 254 240 210 202 204 206 209 212 215 215 229 235 240 243 234 225 216 212 220 223 222 231 233 240 237 233 228 220 203 182 185 190 181 179 179 177
205 223 200 231 227 260 269 277 289 260 280 271 276 291 261 207 206 212 215 220 222 221 217 231 232 236 238 229 231 224 212 215 221 227 225 234 229 233 228 226 202 191 184 182 180 176 179 183 185
240 218 221 253 253 263 267 279 259 255 262 278 279 276 256 224 224 228 223 225 224 228 228 230 225 223 230 237 239 234 216 218 223 229 227 226 223 227 224 209 197 181 179 182 178 177 183 185 190
236 244 252 254 263 265 274 271 262 270 281 288 286 266 255 242 235 235 238 230 227 230 234 231 226 216 226 232 238 236 230 219 225 227 225 222 223 215 207 202 195 176 181 182 181 179 183 184 187
230 223 248 255 267 265 263 273 258 267 280 287 291 275 259 247 246 239 231 231 228 232 235 233 229 218 226 230 241 238 229 222 224 226 224 223 214 202 200 211 196 192 185 183 184 179 180 180 183
246 262 264 221 235 256 272 265 239 270 283 282 282 282 279 268 263 242 248 238 233 233 233 235 228 220 225 230 238 231 224 219 222 222 226 215 214 212 216 218 221 192 181 184 184 180 180 181 173
229 209 207 225 199 244 193 260 274 276 267 273 284 293 294 293 295 275 262 245 235 230 231 232 226 223 224 228 233 228 222 218 220 222 220 222 218 220 234 241 209 176 176 185 184 181 183 184 180
239 233 206 291 227 244 178 276 261 290 304 285 298 302 302 304 299 294 269 249 237 230 228 228 225 223 224 221 221 224 220 216 226 219 221 226 225 225 233 202 186 175 178 185 186 184 186 183 174
237 239 238 213 251 234 265 272 267 286 281 284 296 298 298 299 300 298 284 252 234 226 225 225 222 219 218 220 217 219 217 218 224 225 234 231 221 223 213 192 170 181 183 188 187 186 187 184 173
223 240 213 179 285 325 273 278 282 281 288 285 286 297 298 300 298 309 288 241 224 219 218 216 216 214 216 215 215 218 216 217 222 228 231 229 224 216 210 202 184 186 184 192 187 184 184 181 172
225 238 247 260 246 261 282 279 284 255 250 259 279 292 295 300 297 304 287 226 216 216 210 211 213 214 220 220 225 225 220 217 221 225 222 223 221 220 211 200 188 189 192 190 187 183 180 179 175
223 230 170 236 287 259 290 283 270 259 249 273 283 284 290 284 280 281 260 220 209 210 210 210 213 214 219 220 223 221 212 218 219 220 220 225 223 214 210 209 193 195 197 192 188 184 185 179 178
253 214 243 264 147 249 141 289 270 234 261 285 284 292 290 291 271 264 248 219 210 211 209 209 212 214 217 224 224 226 216 211 215 222 221 218 221 223 224 218 207 201 197 194 188 184 188 186 180
224 225 211 232 209 273 250 274 32 74 276 269 274 277 290 297 268 247 243 225 214 210 208 207 210 213 218 224 222 221 212 213 221 225 229 223 224 224 207 220 219 203 193 194 189 190 193 195 188
283 260 270 171 155 257 206 188 280 231 222 267 278 312 313 285 287 263 246 224 216 211 207 205 209 213 219 222 218 217 215 210 210 217 219 221 219 223 220 218 219 203 188 192 191 193 199 198 195
167 38 307 302 180 239 176 205 245 296 288 278 313 316 335 329 287 248 225 218 219 212 206 205 209 214 217 219 214 209 211 207 208 214 217 215 219 219 226 220 209 206 187 193 191 185 191 194 189
197 166 192 221 223 258 185 239 244 286 351 350 351 349 336 335 340 245 226 227 218 213 206 205 208 214 214 216 209 207 207 203 204 216 218 218 225 225 220 209 210 200 189 190 191 188 194 196 193
195 216 198 248 218 257 218 286 315 85 16 3 353 341 331 323 332 264 221 223 216 212 206 206 208 213 214 212 206 207 202 201 200 211 209 214 219 213 206 206 192 187 187 186 179 187 195 198 203
208 151 195 247 233 249 241 251 247 348 352 0 8 336 323 322 337 304 216 215 214 211 204 205 211 214 214 206 203 204 201 201 201 203 207 203 200 184 174 178 187 185 183 185 202 196 194 203 210
145 216 207 195 175 249 264 259 198 193 281 5 9 316 315 321 326 291 216 213 214 208 203 205 209 211 211 205 201 203 204 204 204 203 202 205 203 205 198 190 190 194 200 203 203 208 200 204 218
190 158 161 177 222 205 187 261 183 103 84 93 286 314 321 324 318 306 237 214 208 209 203 205 208 209 212 205 203 205 205 205 207 208 208 210 214 220 223 218 216 211 204 204 205 207 211 211 219